GSAT0206 (GALILEO 10)

Last updated on Nov. 13, 2019, 4:20 a.m. UTC

1 40890U 15045B   19316.35417961 -.00000020  00000-0  00000+0 0  9994
2 40890  56.3288 288.0965 0002758 312.5624  47.3871  1.70474785 25974
UTC
Height (km)
Latitude
Longitude
Inclination
Orbital Period
UTC large
Height (km)
Speed (km/s)
/
Latitude / Longitude
Inclination (degrees)
Orbital Period (minutes)
Azimuth
Elevation
Range (km)
Doppler Factor
iOS Compass Heading
iOS Angle

Next 30 passes for location: Hong Kong

Rise time Rise Azimuth (degrees) Set time Set Azimuth (degrees) Duration Max altitude (degrees)

No matching passes for this satellites